Time,TemperatureF,DewpointF,PressureIn,WindDirection,WindDirectionDegrees,WindSpeedMPH,WindSpeedGustMPH,Humidity,HourlyPrecipIn,Conditions,Clouds,dailyrainin,SoftwareType,DateUTC
2013-03-01 11:40:00,35.8,32.9,30.01,NW,309,2.0,7.0,89,0.00,,,0.00,Wunderground v.1.15,2013-03-01 16:40:00,
2013-03-01 11:41:00,35.8,32.9,30.01,NW,313,2.0,7.0,89,0.00,,,0.00,Wunderground v.1.15,2013-03-01 16:41:00,
2013-03-01 11:43:00,35.9,33.0,30.01,NNE,15,2.0,7.0,89,0.00,,,0.00,Wunderground v.1.15,2013-03-01 16:43:00,
2013-03-01 11:44:00,35.9,33.0,30.01,NNE,20,2.0,7.0,89,0.00,,,0.00,Wunderground v.1.15,2013-03-01 16:44:00,
2013-03-01 11:50:00,35.7,32.5,30.01,North,9,2.0,2.0,88,0.00,,,0.00,Wunderground v.1.15,2013-03-01 16:50:00,
2013-03-01 11:56:00,35.4,32.2,30.00,NNW,331,3.0,4.0,88,0.00,,,0.00,Wunderground v.1.15,2013-03-01 16:56:00,
2013-03-01 12:01:00,35.6,32.7,30.00,North,355,2.0,3.0,89,0.00,,,0.00,Wunderground v.1.15,2013-03-01 17:01:00,
2013-03-01 12:07:00,35.9,33.0,30.00,West,261,2.0,4.0,89,0.00,,,0.00,Wunderground v.1.15,2013-03-01 17:07:00,
2013-03-01 12:13:00,36.2,33.3,30.00,West,264,2.0,4.0,89,0.00,,,0.00,Wunderground v.1.15,2013-03-01 17:13:00,
2013-03-01 12:19:00,36.3,33.1,30.01,WSW,255,1.0,4.0,88,0.00,,,0.00,Wunderground v.1.15,2013-03-01 17:19:00,
2013-03-01 12:24:00,36.5,33.0,30.01,NNW,345,1.0,3.0,87,0.00,,,0.00,Wunderground v.1.15,2013-03-01 17:24:00,
2013-03-01 12:30:00,36.5,33.0,30.01,NNW,342,2.0,2.0,87,0.00,,,0.00,Wunderground v.1.15,2013-03-01 17:30:00,
2013-03-01 12:36:00,36.5,33.0,30.01,NNW,335,2.0,4.0,87,0.00,,,0.00,Wunderground v.1.15,2013-03-01 17:36:00,
2013-03-01 12:42:00,36.1,32.3,30.01,NNW,343,2.0,2.0,86,0.00,,,0.00,Wunderground v.1.15,2013-03-01 17:42:00,
2013-03-01 12:48:00,35.8,32.3,30.01,NNW,327,2.0,3.0,87,0.00,,,0.00,Wunderground v.1.15,2013-03-01 17:48:00,
2013-03-01 12:53:00,35.7,32.2,30.00,NNW,331,1.0,3.0,87,0.00,,,0.00,Wunderground v.1.15,2013-03-01 17:53:00,
2013-03-01 12:59:00,36.0,32.8,30.00,NW,317,1.0,3.0,88,0.00,,,0.00,Wunderground v.1.15,2013-03-01 17:59:00,
2013-03-01 13:04:00,36.5,33.6,30.00,WSW,255,2.0,4.0,89,0.00,,,0.00,Wunderground v.1.15,2013-03-01 18:04:00,
2013-03-01 13:10:00,37.1,34.2,30.00,North,9,1.0,3.0,89,0.00,,,0.00,Wunderground v.1.15,2013-03-01 18:10:00,
2013-03-01 13:16:00,37.7,34.2,30.00,WSW,252,1.0,3.0,87,0.00,,,0.00,Wunderground v.1.15,2013-03-01 18:16:00,
2013-03-01 13:22:00,38.2,34.7,29.99,NNW,346,1.0,1.0,87,0.00,,,0.00,Wunderground v.1.15,2013-03-01 18:22:00,
2013-03-01 13:27:00,38.4,34.6,29.99,NE,37,1.0,3.0,86,0.00,,,0.00,Wunderground v.1.15,2013-03-01 18:27:00,
2013-03-01 13:32:00,38.6,34.2,29.99,NNW,331,1.0,4.0,84,0.00,,,0.00,Wunderground v.1.15,2013-03-01 18:32:00,
2013-03-01 13:38:00,38.7,34.3,29.99,North,355,1.0,4.0,84,0.00,,,0.00,Wunderground v.1.15,2013-03-01 18:38:00,
2013-03-01 13:44:00,38.8,34.1,29.99,North,355,1.0,2.0,83,0.00,,,0.00,Wunderground v.1.15,2013-03-01 18:44:00,
2013-03-01 13:49:00,38.7,34.0,29.98,West,260,2.0,4.0,83,0.00,,,0.00,Wunderground v.1.15,2013-03-01 18:49:00,
2013-03-01 13:54:00,38.5,33.5,29.98,NNW,346,2.0,5.0,82,0.00,,,0.00,Wunderground v.1.15,2013-03-01 18:54:00,
2013-03-01 14:00:00,38.1,33.1,29.98,North,9,1.0,1.0,82,0.00,,,0.00,Wunderground v.1.15,2013-03-01 19:00:00,
2013-03-01 14:05:00,37.7,33.0,29.98,NE,35,1.0,1.0,83,0.00,,,0.00,Wunderground v.1.15,2013-03-01 19:05:00,
2013-03-01 14:11:00,37.4,33.0,29.98,North,350,1.0,4.0,84,0.00,,,0.00,Wunderground v.1.15,2013-03-01 19:11:00,
2013-03-01 14:16:00,37.0,32.6,29.98,North,355,1.0,4.0,84,0.00,,,0.00,Wunderground v.1.15,2013-03-01 19:16:00,
2013-03-01 14:22:00,36.9,32.8,29.98,West,263,1.0,2.0,85,0.00,,,0.00,Wunderground v.1.15,2013-03-01 19:22:00,
2013-03-01 14:27:00,36.9,32.8,29.98,West,271,1.0,3.0,85,0.00,,,0.00,Wunderground v.1.15,2013-03-01 19:27:00,
2013-03-01 14:33:00,36.9,32.8,29.98,West,274,2.0,2.0,85,0.00,,,0.00,Wunderground v.1.15,2013-03-01 19:33:00,
2013-03-01 14:39:00,36.7,32.6,29.98,North,355,1.0,3.0,85,0.00,,,0.00,Wunderground v.1.15,2013-03-01 19:39:00,
2013-03-01 14:44:00,36.6,32.5,29.98,NNW,331,2.0,2.0,85,0.00,,,0.00,Wunderground v.1.15,2013-03-01 19:44:00,
2013-03-01 14:50:00,36.4,32.3,29.98,North,355,2.0,2.0,85,0.00,,,0.00,Wunderground v.1.15,2013-03-01 19:50:00,
2013-03-01 14:55:00,36.3,32.5,29.98,NW,321,1.0,2.0,86,0.00,,,0.00,Wunderground v.1.15,2013-03-01 19:55:00,
2013-03-01 15:01:00,36.4,32.6,29.98,North,355,1.0,1.0,86,0.00,,,0.00,Wunderground v.1.15,2013-03-01 20:01:00,
2013-03-01 15:06:00,36.4,32.6,29.98,WSW,256,1.0,2.0,86,0.00,,,0.00,Wunderground v.1.15,2013-03-01 20:06:00,
2013-03-01 15:12:00,36.5,32.7,29.98,North,355,1.0,3.0,86,0.00,,,0.00,Wunderground v.1.15,2013-03-01 20:12:00,
2013-03-01 15:18:00,36.6,32.8,29.98,NNW,338,1.0,3.0,86,0.00,,,0.00,Wunderground v.1.15,2013-03-01 20:18:00,
2013-03-01 15:23:00,36.7,32.9,29.98,West,261,1.0,2.0,86,0.00,,,0.00,Wunderground v.1.15,2013-03-01 20:23:00,
2013-03-01 15:29:00,36.8,33.0,29.98,North,5,1.0,3.0,86,0.00,,,0.00,Wunderground v.1.15,2013-03-01 20:29:00,
2013-03-01 15:34:00,36.8,32.7,29.98,NNW,336,1.0,4.0,85,0.00,,,0.00,Wunderground v.1.15,2013-03-01 20:34:00,
2013-03-01 15:40:00,36.9,33.1,29.98,WSW,240,1.0,3.0,86,0.00,,,0.00,Wunderground v.1.15,2013-03-01 20:40:00,
2013-03-01 15:45:00,37.0,32.9,29.98,NNW,344,2.0,4.0,85,0.00,,,0.00,Wunderground v.1.15,2013-03-01 20:45:00,
2013-03-01 15:51:00,37.1,33.0,29.98,West,266,1.0,4.0,85,0.00,,,0.00,Wunderground v.1.15,2013-03-01 20:51:00,
2013-03-01 15:57:00,37.2,33.1,29.98,WSW,242,1.0,4.0,85,0.00,,,0.00,Wunderground v.1.15,2013-03-01 20:57:00,
2013-03-01 16:02:00,37.1,33.0,29.98,North,355,1.0,2.0,85,0.00,,,0.00,Wunderground v.1.15,2013-03-01 21:02:00,
2013-03-01 16:07:00,36.9,32.8,29.98,NNW,335,1.0,2.0,85,0.00,,,0.00,Wunderground v.1.15,2013-03-01 21:07:00,
2013-03-01 16:13:00,36.7,32.9,29.98,West,264,2.0,3.0,86,0.00,,,0.00,Wunderground v.1.15,2013-03-01 21:13:00,
2013-03-01 16:19:00,36.5,33.0,29.99,North,355,2.0,3.0,87,0.00,,,0.00,Wunderground v.1.15,2013-03-01 21:19:00,
2013-03-01 16:25:00,36.2,33.3,29.99,West,269,1.0,2.0,89,0.00,,,0.00,Wunderground v.1.15,2013-03-01 21:25:00,
2013-03-01 16:30:00,36.0,33.1,29.99,NW,320,1.0,1.0,89,0.00,,,0.00,Wunderground v.1.15,2013-03-01 21:30:00,
2013-03-01 16:36:00,35.8,33.2,29.99,North,355,1.0,2.0,90,0.00,,,0.01,Wunderground v.1.15,2013-03-01 21:36:00,
2013-03-01 16:41:00,35.7,33.3,29.99,WSW,248,0.0,0.0,91,0.00,,,0.01,Wunderground v.1.15,2013-03-01 21:41:00,
2013-03-01 16:46:00,35.5,33.1,29.99,NNE,18,1.0,3.0,91,0.00,,,0.01,Wunderground v.1.15,2013-03-01 21:46:00,
2013-03-01 16:52:00,35.3,33.2,29.99,NW,304,1.0,1.0,92,0.00,,,0.01,Wunderground v.1.15,2013-03-01 21:52:00,
2013-03-01 16:57:00,35.2,33.1,29.99,NNW,331,1.0,1.0,92,0.00,,,0.01,Wunderground v.1.15,2013-03-01 21:57:00,
2013-03-01 17:03:00,35.0,33.2,29.99,NNW,330,1.0,2.0,93,0.00,,,0.01,Wunderground v.1.15,2013-03-01 22:03:00,
2013-03-01 17:09:00,34.8,33.0,29.99,West,261,1.0,2.0,93,0.00,,,0.01,Wunderground v.1.15,2013-03-01 22:09:00,
2013-03-01 17:14:00,34.7,32.9,30.00,NW,323,1.0,2.0,93,0.00,,,0.02,Wunderground v.1.15,2013-03-01 22:14:00,
2013-03-01 17:20:00,34.6,33.1,30.00,WNW,296,1.0,1.0,94,0.00,,,0.02,Wunderground v.1.15,2013-03-01 22:20:00,
2013-03-01 17:26:00,34.6,33.1,30.00,NNW,331,1.0,2.0,94,0.00,,,0.02,Wunderground v.1.15,2013-03-01 22:26:00,
2013-03-01 17:31:00,34.5,33.0,30.00,West,274,0.0,0.0,94,0.00,,,0.02,Wunderground v.1.15,2013-03-01 22:31:00,
2013-03-01 17:36:00,34.5,33.0,30.00,NNW,344,1.0,2.0,94,0.00,,,0.02,Wunderground v.1.15,2013-03-01 22:36:00,
2013-03-01 17:42:00,34.5,33.2,30.00,NNW,344,0.0,0.0,95,0.00,,,0.03,Wunderground v.1.15,2013-03-01 22:42:00,
2013-03-01 17:48:00,34.4,33.1,30.00,NE,38,0.0,3.0,95,0.00,,,0.03,Wunderground v.1.15,2013-03-01 22:48:00,
2013-03-01 17:54:00,34.4,33.1,30.00,NE,38,1.0,2.0,95,0.00,,,0.03,Wunderground v.1.15,2013-03-01 22:54:00,
2013-03-01 17:59:00,34.4,33.1,30.01,NE,38,1.0,3.0,95,0.00,,,0.03,Wunderground v.1.15,2013-03-01 22:59:00,
2013-03-01 18:05:00,34.3,33.0,30.01,NW,319,1.0,1.0,95,0.00,,,0.03,Wunderground v.1.15,2013-03-01 23:05:00,
2013-03-01 18:11:00,34.4,33.1,30.01,NW,319,0.0,1.0,95,0.00,,,0.03,Wunderground v.1.15,2013-03-01 23:11:00,
2013-03-01 18:17:00,34.4,33.1,30.01,NW,311,0.0,1.0,95,0.00,,,0.03,Wunderground v.1.15,2013-03-01 23:17:00,
2013-03-01 18:23:00,34.4,33.1,30.01,North,360,1.0,1.0,95,0.00,,,0.03,Wunderground v.1.15,2013-03-01 23:23:00,
2013-03-01 18:28:00,34.4,33.4,30.01,NNW,348,1.0,1.0,96,0.00,,,0.03,Wunderground v.1.15,2013-03-01 23:28:00,
2013-03-01 18:34:00,34.3,33.3,30.01,NW,318,1.0,2.0,96,0.00,,,0.03,Wunderground v.1.15,2013-03-01 23:34:00,
2013-03-01 18:39:00,34.1,33.1,30.02,WSW,251,1.0,2.0,96,0.00,,,0.03,Wunderground v.1.15,2013-03-01 23:39:00,
2013-03-01 18:45:00,34.0,33.0,30.02,NNE,13,1.0,1.0,96,0.00,,,0.03,Wunderground v.1.15,2013-03-01 23:45:00,
2013-03-01 18:50:00,34.0,33.0,30.02,WNW,301,0.0,0.0,96,0.00,,,0.03,Wunderground v.1.15,2013-03-01 23:50:00,
2013-03-01 18:56:00,33.9,32.9,30.02,NW,320,0.0,1.0,96,0.00,,,0.03,Wunderground v.1.15,2013-03-01 23:56:00,
2013-03-01 19:02:00,33.8,32.8,30.02,NNW,336,0.0,1.0,96,0.00,,,0.03,Wunderground v.1.15,2013-03-02 00:02:00,
2013-03-01 19:07:00,33.7,32.7,30.02,NNW,329,0.0,2.0,96,0.00,,,0.03,Wunderground v.1.15,2013-03-02 00:07:00,
2013-03-01 19:13:00,33.5,32.2,30.02,North,360,0.0,1.0,95,0.00,,,0.03,Wunderground v.1.15,2013-03-02 00:13:00,
2013-03-01 19:19:00,33.4,32.1,30.03,NNW,335,0.0,1.0,95,0.00,,,0.03,Wunderground v.1.15,2013-03-02 00:19:00,
2013-03-01 19:24:00,33.4,32.1,30.03,NNW,335,0.0,0.0,95,0.00,,,0.03,Wunderground v.1.15,2013-03-02 00:24:00,
2013-03-01 19:30:00,33.3,32.0,30.03,NNW,335,0.0,0.0,95,0.00,,,0.03,Wunderground v.1.15,2013-03-02 00:30:00,
2013-03-01 19:36:00,33.3,32.0,30.03,NW,325,0.0,0.0,95,0.00,,,0.03,Wunderground v.1.15,2013-03-02 00:36:00,
2013-03-01 19:41:00,33.2,31.9,30.03,NW,309,0.0,2.0,95,0.00,,,0.03,Wunderground v.1.15,2013-03-02 00:41:00,
2013-03-01 19:47:00,33.2,31.9,30.03,ESE,123,1.0,2.0,95,0.00,,,0.03,Wunderground v.1.15,2013-03-02 00:47:00,
2013-03-01 19:53:00,33.1,31.8,30.03,ESE,123,0.0,1.0,95,0.00,,,0.03,Wunderground v.1.15,2013-03-02 00:53:00,
2013-03-01 19:58:00,33.1,31.8,30.03,WSW,243,0.0,1.0,95,0.00,,,0.03,Wunderground v.1.15,2013-03-02 00:58:00,
2013-03-01 20:04:00,33.1,31.8,30.03,WNW,290,0.0,1.0,95,0.00,,,0.03,Wunderground v.1.15,2013-03-02 01:04:00,
2013-03-01 20:10:00,33.0,31.7,30.03,NNW,346,0.0,0.0,95,0.00,,,0.03,Wunderground v.1.15,2013-03-02 01:10:00,
2013-03-01 20:16:00,33.0,31.5,30.03,NNW,346,0.0,0.0,94,0.00,,,0.03,Wunderground v.1.15,2013-03-02 01:16:00,
2013-03-01 20:22:00,33.0,31.5,30.03,NNW,331,0.0,1.0,94,0.00,,,0.03,Wunderground v.1.15,2013-03-02 01:22:00,
2013-03-01 20:27:00,32.9,31.4,30.04,NW,320,0.0,1.0,94,0.00,,,0.03,Wunderground v.1.15,2013-03-02 01:27:00,
2013-03-01 20:33:00,32.9,31.4,30.04,NNW,338,0.0,1.0,94,0.00,,,0.03,Wunderground v.1.15,2013-03-02 01:33:00,
2013-03-01 20:38:00,32.9,31.4,30.03,NW,325,0.0,1.0,94,0.00,,,0.03,Wunderground v.1.15,2013-03-02 01:38:00,
2013-03-01 20:44:00,32.8,31.3,30.04,NNW,336,0.0,1.0,94,0.00,,,0.03,Wunderground v.1.15,2013-03-02 01:44:00,
2013-03-01 20:49:00,32.8,31.0,30.04,NNW,335,0.0,1.0,93,0.00,,,0.03,Wunderground v.1.15,2013-03-02 01:49:00,
2013-03-01 20:55:00,32.8,31.0,30.04,NNW,335,0.0,0.0,93,0.00,,,0.03,Wunderground v.1.15,2013-03-02 01:55:00,
2013-03-01 21:00:00,32.8,31.0,30.04,NNW,340,0.0,0.0,93,0.00,,,0.03,Wunderground v.1.15,2013-03-02 02:00:00,
2013-03-01 21:05:00,32.8,31.0,30.03,NNW,340,0.0,2.0,93,0.00,,,0.03,Wunderground v.1.15,2013-03-02 02:05:00,
2013-03-01 21:11:00,32.8,31.0,30.04,North,11,0.0,2.0,93,0.00,,,0.03,Wunderground v.1.15,2013-03-02 02:11:00,
2013-03-01 21:16:00,32.8,31.0,30.04,North,360,1.0,2.0,93,0.00,,,0.03,Wunderground v.1.15,2013-03-02 02:16:00,
2013-03-01 21:22:00,32.8,31.0,30.04,North,360,0.0,0.0,93,0.00,,,0.03,Wunderground v.1.15,2013-03-02 02:22:00,
2013-03-01 21:28:00,32.8,30.7,30.04,West,274,0.0,1.0,92,0.00,,,0.03,Wunderground v.1.15,2013-03-02 02:28:00,
2013-03-01 21:34:00,32.8,30.7,30.04,NE,47,0.0,2.0,92,0.00,,,0.03,Wunderground v.1.15,2013-03-02 02:34:00,
2013-03-01 21:39:00,32.8,30.7,30.04,NE,46,0.0,2.0,92,0.00,,,0.03,Wunderground v.1.15,2013-03-02 02:39:00,
2013-03-01 21:45:00,32.7,30.6,30.04,NNW,334,0.0,1.0,92,0.00,,,0.03,Wunderground v.1.15,2013-03-02 02:45:00,
2013-03-01 21:51:00,32.8,30.7,30.04,West,259,0.0,0.0,92,0.00,,,0.03,Wunderground v.1.15,2013-03-02 02:51:00,
2013-03-01 21:57:00,32.7,30.6,30.05,NW,315,0.0,1.0,92,0.00,,,0.03,Wunderground v.1.15,2013-03-02 02:57:00,
2013-03-01 22:03:00,32.7,30.6,30.05,NW,315,0.0,0.0,92,0.00,,,0.03,Wunderground v.1.15,2013-03-02 03:03:00,
2013-03-01 22:08:00,32.7,30.6,30.05,NW,316,0.0,0.0,92,0.00,,,0.03,Wunderground v.1.15,2013-03-02 03:08:00,
2013-03-01 22:13:00,32.8,30.7,30.05,NW,316,0.0,0.0,92,0.00,,,0.03,Wunderground v.1.15,2013-03-02 03:13:00,
2013-03-01 22:18:00,32.7,30.6,30.05,NW,316,0.0,1.0,92,0.00,,,0.03,Wunderground v.1.15,2013-03-02 03:18:00,
2013-03-01 22:23:00,32.7,30.4,30.05,NW,316,0.0,0.0,91,0.00,,,0.03,Wunderground v.1.15,2013-03-02 03:23:00,
2013-03-01 22:29:00,32.7,30.4,30.05,NW,316,0.0,0.0,91,0.00,,,0.03,Wunderground v.1.15,2013-03-02 03:29:00,
2013-03-01 22:34:00,32.6,30.3,30.05,NW,316,0.0,0.0,91,0.00,,,0.03,Wunderground v.1.15,2013-03-02 03:34:00,
2013-03-01 22:40:00,32.6,30.3,30.05,NW,316,0.0,0.0,91,0.00,,,0.03,Wunderground v.1.15,2013-03-02 03:40:00,
2013-03-01 22:46:00,32.6,30.3,30.05,WNW,303,0.0,1.0,91,0.00,,,0.03,Wunderground v.1.15,2013-03-02 03:46:00,
2013-03-01 22:52:00,32.6,30.3,30.05,NW,315,0.0,0.0,91,0.00,,,0.03,Wunderground v.1.15,2013-03-02 03:52:00,
2013-03-01 22:58:00,32.5,30.2,30.05,NW,315,0.0,1.0,91,0.00,,,0.03,Wunderground v.1.15,2013-03-02 03:58:00,
2013-03-01 23:04:00,32.5,30.2,30.05,NW,315,0.0,0.0,91,0.00,,,0.03,Wunderground v.1.15,2013-03-02 04:04:00,
2013-03-01 23:10:00,32.5,30.2,30.05,NW,315,0.0,0.0,91,0.00,,,0.03,Wunderground v.1.15,2013-03-02 04:10:00,
2013-03-01 23:15:00,32.5,30.2,30.05,NW,315,0.0,1.0,91,0.00,,,0.03,Wunderground v.1.15,2013-03-02 04:15:00,
2013-03-01 23:21:00,32.5,30.2,30.05,NW,317,0.0,1.0,91,0.00,,,0.03,Wunderground v.1.15,2013-03-02 04:21:00,
2013-03-01 23:26:00,32.4,29.8,30.05,NNW,345,0.0,1.0,90,0.00,,,0.03,Wunderground v.1.15,2013-03-02 04:26:00,
2013-03-01 23:32:00,32.3,29.7,30.05,NNW,331,0.0,0.0,90,0.00,,,0.03,Wunderground v.1.15,2013-03-02 04:32:00,
2013-03-01 23:38:00,32.2,29.3,30.05,North,350,1.0,2.0,89,0.00,,,0.03,Wunderground v.1.15,2013-03-02 04:38:00,
2013-03-01 23:44:00,32.1,29.2,30.05,NW,315,1.0,1.0,89,0.00,,,0.03,Wunderground v.1.15,2013-03-02 04:44:00,
2013-03-01 23:50:00,32.1,29.2,30.05,North,355,0.0,0.0,89,0.00,,,0.03,Wunderground v.1.15,2013-03-02 04:50:00,
2013-03-01 23:55:00,32.0,28.8,30.05,WNW,282,0.0,1.0,88,0.00,,,0.03,Wunderground v.1.15,2013-03-02 04:55:00,